[[{"header":{"parameterUnit":"m.s-1","parameterCategory":1,"la1":30.2992,"la2":30.254,"lo1":-89.0895,"lo2":-89.0443,"dy":0.0025,"dx":0.0025,"nx":19,"ny":19,"refTime":"2026-05-07T09:00:00:Z","depth":0,"parameterNumber":2,"parameterNumberName":"U-component_of_WINDS"},"data":[0,0,0,-1.0171,-1.0172,-1.0218,-1.0218,-1.0298,-1.0298,0,0,0,0,0,0,0,0,0,0,0,-1.0168,-1.0169,-1.0171,-1.0172,-1.0218,-1.0218,-1.0297,-1.0298,0,0,0,0,0,0,0,0,0,0,0,-1.0168,-1.0169,-1.017,-1.0173,-1.0218,-1.0218,-1.0297,-1.0256,0,0,0,0,0,0,0,0,0,0,-1.0208,-1.0215,-1.0169,-1.017,-1.0173,-1.0218,-1.0218,-1.0253,-1.0258,-1.0285,0,-1.031,0,-1.0305,-1.0305,-1.0305,0,0,0,-1.0165,-1.0211,-1.0214,-1.017,-1.0173,-1.0218,-1.0195,-1.0256,-1.0261,-1.0292,-1.0311,-1.0313,-1.0307,-1.0305,-1.0306,-1.0481,-1.0482,0,0,-1.0162,-1.0183,-1.021,-1.0218,-1.021,-1.0194,-1.0197,-1.0259,-1.0282,-1.0311,-1.0315,-1.0308,-1.0306,-1.0307,-1.048,-1.0481,0,0,0,-1.016,-1.0182,-1.0182,-1.0215,-1.0222,-1.0195,-1.0199,-1.028,-1.0278,-1.0316,-1.0309,-1.0307,-1.0308,-1.0478,-1.048,-1.0559,0,0,0,-1.0158,-1.018,-1.0181,-1.0194,-1.0221,-1.0251,-1.0219,-1.0273,-1.028,-1.0309,-1.0307,-1.0309,-1.0477,-1.0479,-1.0554,-1.0595,0,0,0,-1.0162,-1.018,-1.019,-1.0195,-1.0215,-1.0249,-1.0251,-1.0274,-1.0276,-1.0305,-1.0309,-1.0476,-1.0479,-1.055,-1.0587,-1.0648,0,0,0,-1.0172,-1.0261,-1.0192,-1.0288,-1.0215,-1.0296,-1.025,-1.031,-1.0344,-1.0307,-1.0477,-1.048,-1.0548,-1.0583,-1.0644,-1.0706,-1.0733,0,0,-1.0296,-1.0276,-1.0331,-1.0271,-1.037,-1.0288,-1.0398,-1.0411,-1.0395,-1.0453,-1.0457,-1.0556,-1.0587,-1.0647,-1.087,-1.0891,0,0,0,-1.0378,-1.0418,-1.0439,-1.0472,-1.0481,-1.0494,-1.0487,-1.0491,-1.0539,-1.0428,-1.0592,-1.061,-1.0644,-1.0674,-1.0692,-1.0722,-1.0493,-1.0493,-1.0493,-1.0587,-1.0559,-1.0649,-1.0627,-1.0659,-1.0649,-1.0673,-1.0678,-1.0642,-1.0681,-1.07,-1.0838,-1.0872,-1.0886,-1.0917,-1.0727,-1.0728,-1.0728,-1.0728,-1.0769,-1.0823,-1.077,-1.0839,-1.081,-1.0868,-1.0861,-1.0833,-1.0884,-1.0822,-1.0851,-1.0789,-1.091,-1.0937,-1.0734,-1.0733,-1.0732,-1.0731,-1.0731,-1.0906,-1.0927,-1.0928,-1.0971,-1.1008,-1.0982,-1.1032,-1.1003,-1.0977,-1.1006,-1.1024,-1.1022,-1.102,-1.1015,-1.1016,-1.1016,-1.1016,-1.1017,-1.1017,-1.105,-1.1048,-1.1094,-1.111,-1.1126,-1.1144,-1.1132,-1.1148,-1.1159,-1.1135,-1.1135,-1.1097,-1.0925,-1.0885,-1.1025,-1.1023,-1.1022,-1.1022,-1.1021,-1.1252,-1.1201,-1.1272,-1.1288,-1.1303,-1.1342,-1.1302,-1.1337,-1.1345,-1.1372,-1.1325,-1.1202,-1.1182,-1.1167,-1.1134,-1.1329,-1.1329,-1.1329,-1.1329,-1.1371,-1.1356,-1.1421,-1.1449,-1.1473,-1.1443,-1.1525,-1.1516,-1.15,-1.1504,-1.147,-1.1421,-1.1407,-1.1395,-1.1376,-1.1345,-1.1589,-1.159,-1.159,-1.1496,-1.1481,-1.1557,-1.1537,-1.1546,-1.1555,-1.1632,-1.1667,-1.1637,-1.16,-1.1507,-1.1496,-1.1417,-1.1393,-1.1359,-1.1329,-1.1271,0,0]},{"header":{"parameterUnit":"m.s-1","parameterCategory":1,"la1":30.2992,"la2":30.254,"lo1":-89.0895,"lo2":-89.0443,"dy":0.0025,"dx":0.0025,"nx":19,"ny":19,"refTime":"2026-05-07T09:00:00:Z","depth":0,"parameterNumber":3,"parameterNumberName":"V-component_of_WINDS"},"data":[0,0,0,-3.5842,-3.5843,-3.5901,-3.5901,-3.5988,-3.5989,0,0,0,0,0,0,0,0,0,0,0,-3.5835,-3.5835,-3.5842,-3.5843,-3.5901,-3.5901,-3.5988,-3.5989,0,0,0,0,0,0,0,0,0,0,0,-3.5834,-3.5835,-3.5836,-3.5844,-3.5901,-3.5901,-3.5988,-3.5939,0,0,0,0,0,0,0,0,0,0,-3.5881,-3.5884,-3.5835,-3.5836,-3.5844,-3.5901,-3.5901,-3.5937,-3.5942,-3.5969,0,-3.5996,0,-3.5994,-3.5996,-3.5996,0,0,0,-3.5836,-3.588,-3.5886,-3.5837,-3.5845,-3.5901,-3.5873,-3.594,-3.5946,-3.5976,-3.5997,-3.6,-3.5996,-3.5997,-3.5997,-3.6177,-3.6178,0,0,-3.5832,-3.585,-3.5882,-3.5891,-3.5885,-3.5871,-3.5874,-3.5943,-3.5967,-3.5997,-3.6002,-3.5997,-3.5997,-3.5998,-3.6176,-3.6177,0,0,0,-3.5829,-3.5848,-3.5853,-3.5888,-3.5897,-3.5873,-3.5877,-3.5963,-3.5964,-3.6002,-3.5998,-3.5998,-3.5999,-3.6175,-3.6176,-3.6252,0,0,0,-3.5826,-3.5846,-3.5852,-3.5863,-3.5896,-3.5931,-3.5896,-3.5959,-3.5966,-3.5998,-3.5998,-3.6,-3.6173,-3.6176,-3.6247,-3.6285,0,0,0,-3.5827,-3.5846,-3.5858,-3.5864,-3.5889,-3.593,-3.5934,-3.596,-3.5964,-3.5996,-3.6,-3.6172,-3.6175,-3.6243,-3.6278,-3.6336,0,0,0,-3.5833,-3.5924,-3.5859,-3.5959,-3.5889,-3.5977,-3.5933,-3.5998,-3.6035,-3.5998,-3.6173,-3.6176,-3.6242,-3.6273,-3.6332,-3.6389,-3.6414,0,0,-3.5958,-3.594,-3.5997,-3.594,-3.6045,-3.5967,-3.6082,-3.6099,-3.6086,-3.6147,-3.6151,-3.6249,-3.6277,-3.6335,-3.6553,-3.6574,0,0,0,-3.6043,-3.6084,-3.6108,-3.6144,-3.616,-3.6176,-3.6174,-3.618,-3.6231,-3.6121,-3.6286,-3.6302,-3.6336,-3.6362,-3.6379,-3.6406,-3.6189,-3.6189,-3.6189,-3.6243,-3.6222,-3.6315,-3.63,-3.6336,-3.6333,-3.6359,-3.6366,-3.6334,-3.6374,-3.6391,-3.6526,-3.6558,-3.6571,-3.6599,-3.642,-3.6421,-3.6421,-3.6421,-3.6423,-3.6477,-3.6432,-3.6506,-3.6482,-3.6543,-3.6543,-3.6518,-3.6571,-3.6511,-3.654,-3.6475,-3.6594,-3.6617,-3.6427,-3.6426,-3.6425,-3.6424,-3.6424,-3.6551,-3.6573,-3.6579,-3.6629,-3.667,-3.6651,-3.6704,-3.6681,-3.6659,-3.6687,-3.6702,-3.6701,-3.6696,-3.6696,-3.6697,-3.6697,-3.6698,-3.6698,-3.6698,-3.6681,-3.6686,-3.6733,-3.6757,-3.6777,-3.68,-3.6797,-3.6815,-3.683,-3.6808,-3.6808,-3.6771,-3.661,-3.6569,-3.6706,-3.6704,-3.6703,-3.6703,-3.6702,-3.6869,-3.6822,-3.6896,-3.6916,-3.6941,-3.6982,-3.6952,-3.6991,-3.7003,-3.703,-3.6987,-3.6872,-3.6851,-3.6837,-3.6803,-3.6992,-3.6992,-3.6992,-3.6992,-3.6976,-3.6963,-3.7033,-3.7066,-3.7096,-3.7075,-3.7158,-3.7156,-3.7147,-3.7152,-3.7122,-3.7075,-3.7062,-3.7049,-3.7031,-3.6999,-3.7233,-3.7233,-3.7233,-3.7089,-3.7079,-3.7154,-3.7145,-3.7163,-3.7178,-3.7254,-3.7293,-3.7273,-3.7242,-3.7156,-3.7146,-3.707,-3.7047,-3.7013,-3.6985,-3.6925,0,0]}]]